����������;��������(kWh)
2016-01-11 00:00;71,75
2016-01-11 00:15;72,65
2016-01-11 00:30;73,1
2016-01-11 00:45;71,1
2016-01-11 01:00;71,25
2016-01-11 01:15;70,95
2016-01-11 01:30;70,3
2016-01-11 01:45;70,15
2016-01-11 02:00;70,85
2016-01-11 02:15;69,4
2016-01-11 02:30;68,65
2016-01-11 02:45;68
2016-01-11 03:00;69,75
2016-01-11 03:15;67,75
2016-01-11 03:30;67,55
2016-01-11 03:45;68
2016-01-11 04:00;72,1
2016-01-11 04:15;69,3
2016-01-11 04:30;69,5
2016-01-11 04:45;72,8
2016-01-11 05:00;70,1
2016-01-11 05:15;68,25
2016-01-11 05:30;70,05
2016-01-11 05:45;64,2
2016-01-11 06:00;67,2
2016-01-11 06:15;70,5
2016-01-11 06:30;72,1
2016-01-11 06:45;71,4
2016-01-11 07:00;75,65
2016-01-11 07:15;100,45
2016-01-11 07:30;106,6
2016-01-11 07:45;110,1
2016-01-11 08:00;131,95
2016-01-11 08:15;107,15
2016-01-11 08:30;111,1
2016-01-11 08:45;124,55
2016-01-11 09:00;131,8
2016-01-11 09:15;140,15
2016-01-11 09:30;152,95
2016-01-11 09:45;161
2016-01-11 10:00;170,9
2016-01-11 10:15;178,3
2016-01-11 10:30;189,7
2016-01-11 10:45;220,25
2016-01-11 11:00;182,7
2016-01-11 11:15;175,3
2016-01-11 11:30;180,8
2016-01-11 11:45;182,7
2016-01-11 12:00;188,45
2016-01-11 12:15;179
2016-01-11 12:30;176
2016-01-11 12:45;181,5
2016-01-11 13:00;245,35
2016-01-11 13:15;208,45
2016-01-11 13:30;187,9
2016-01-11 13:45;191,6
2016-01-11 14:00;192,95
2016-01-11 14:15;179,25
2016-01-11 14:30;190,55
2016-01-11 14:45;181,95
2016-01-11 15:00;175,05
2016-01-11 15:15;176,2
2016-01-11 15:30;157
2016-01-11 15:45;164,9
2016-01-11 16:00;142,45
2016-01-11 16:15;167,7
2016-01-11 16:30;150,1
2016-01-11 16:45;153
2016-01-11 17:00;152,75
2016-01-11 17:15;148,6
2016-01-11 17:30;151,95
2016-01-11 17:45;151,55
2016-01-11 18:00;149,6
2016-01-11 18:15;140,05
2016-01-11 18:30;145,25
2016-01-11 18:45;138,95
2016-01-11 19:00;140,35
2016-01-11 19:15;132,7
2016-01-11 19:30;116,5
2016-01-11 19:45;120,25
2016-01-11 20:00;124,8
2016-01-11 20:15;120,55
2016-01-11 20:30;123,75
2016-01-11 20:45;121,2
2016-01-11 21:00;118,15
2016-01-11 21:15;110,05
2016-01-11 21:30;102,65
2016-01-11 21:45;95,85
2016-01-11 22:00;94,4
2016-01-11 22:15;87,5
2016-01-11 22:30;87,3
2016-01-11 22:45;85,3
2016-01-11 23:00;79,45
2016-01-11 23:15;77,85
2016-01-11 23:30;74,6
2016-01-11 23:45;74,2
2016-01-12 00:00;73,9
2016-01-12 00:15;75,3
2016-01-12 00:30;75,3
2016-01-12 00:45;75,2
2016-01-12 01:00;72,15
2016-01-12 01:15;72,35
2016-01-12 01:30;73,05
2016-01-12 01:45;71,85
2016-01-12 02:00;73,25
2016-01-12 02:15;76,2
2016-01-12 02:30;79,4
2016-01-12 02:45;76,4
2016-01-12 03:00;76,35
2016-01-12 03:15;76,75
2016-01-12 03:30;78,7
2016-01-12 03:45;72,7
2016-01-12 04:00;73,3
2016-01-12 04:15;70,5
2016-01-12 04:30;70,85
2016-01-12 04:45;72,95
2016-01-12 05:00;71,5
2016-01-12 05:15;67
2016-01-12 05:30;70,1
2016-01-12 05:45;69,05
2016-01-12 06:00;82,95
2016-01-12 06:15;84,95
2016-01-12 06:30;89,4
2016-01-12 06:45;86,15
2016-01-12 07:00;82,9
2016-01-12 07:15;107,5
2016-01-12 07:30;112,85
2016-01-12 07:45;114,05
2016-01-12 08:00;163,1
2016-01-12 08:15;172,75
2016-01-12 08:30;126,25
2016-01-12 08:45;143,1
2016-01-12 09:00;132,8
2016-01-12 09:15;154,1
2016-01-12 09:30;143,95
2016-01-12 09:45;155,4
2016-01-12 10:00;154,65
2016-01-12 10:15;155,45
2016-01-12 10:30;165,7
2016-01-12 10:45;155,85
2016-01-12 11:00;171,9
2016-01-12 11:15;168,05
2016-01-12 11:30;189,05
2016-01-12 11:45;175
2016-01-12 12:00;172,15
2016-01-12 12:15;197,3
2016-01-12 12:30;187,9
2016-01-12 12:45;175,75
2016-01-12 13:00;183,9
2016-01-12 13:15;185,05
2016-01-12 13:30;196,4
2016-01-12 13:45;193,35
2016-01-12 14:00;193,95
2016-01-12 14:15;188,35
2016-01-12 14:30;179,4
2016-01-12 14:45;186,9
2016-01-12 15:00;168,8
2016-01-12 15:15;180,05
2016-01-12 15:30;170,1
2016-01-12 15:45;176,5
2016-01-12 16:00;178,85
2016-01-12 16:15;155,7
2016-01-12 16:30;164,7
2016-01-12 16:45;148,6
2016-01-12 17:00;163,45
2016-01-12 17:15;144,65
2016-01-12 17:30;152,15
2016-01-12 17:45;139,45
2016-01-12 18:00;152,6
2016-01-12 18:15;148,45
2016-01-12 18:30;148,2
2016-01-12 18:45;139,5
2016-01-12 19:00;143
2016-01-12 19:15;128,4
2016-01-12 19:30;125,75
2016-01-12 19:45;118,95
2016-01-12 20:00;117,4
2016-01-12 20:15;114
2016-01-12 20:30;109,45
2016-01-12 20:45;113,3
2016-01-12 21:00;111
2016-01-12 21:15;105,35
2016-01-12 21:30;103,4
2016-01-12 21:45;97,45
2016-01-12 22:00;93,45
2016-01-12 22:15;90,1
2016-01-12 22:30;86,65
2016-01-12 22:45;83,9
2016-01-12 23:00;77,2
2016-01-12 23:15;73,45
2016-01-12 23:30;71,45
2016-01-12 23:45;71,7
2016-01-13 00:00;71,6
2016-01-13 00:15;73,6
2016-01-13 00:30;71,9
2016-01-13 00:45;71,3
2016-01-13 01:00;71,75
2016-01-13 01:15;71,1
2016-01-13 01:30;70,1
2016-01-13 01:45;68,4
2016-01-13 02:00;69,25
2016-01-13 02:15;68,8
2016-01-13 02:30;69,7
2016-01-13 02:45;69,7
2016-01-13 03:00;70,35
2016-01-13 03:15;70,8
2016-01-13 03:30;69,65
2016-01-13 03:45;68,05
2016-01-13 04:00;71,3
2016-01-13 04:15;68,35
2016-01-13 04:30;68,5
2016-01-13 04:45;74
2016-01-13 05:00;72,25
2016-01-13 05:15;69
2016-01-13 05:30;70,9
2016-01-13 05:45;68,45
2016-01-13 06:00;74,3
2016-01-13 06:15;89
2016-01-13 06:30;103,2
2016-01-13 06:45;106,95
2016-01-13 07:00;90,85
2016-01-13 07:15;114,95
2016-01-13 07:30;120
2016-01-13 07:45;116,75
2016-01-13 08:00;136,2
2016-01-13 08:15;117,65
2016-01-13 08:30;123,45
2016-01-13 08:45;130,1
2016-01-13 09:00;141,65
2016-01-13 09:15;140,35
2016-01-13 09:30;137,25
2016-01-13 09:45;140,8
2016-01-13 10:00;146,3
2016-01-13 10:15;147,75
2016-01-13 10:30;156,3
2016-01-13 10:45;170,45
2016-01-13 11:00;172,35
2016-01-13 11:15;166,35
2016-01-13 11:30;214,3
2016-01-13 11:45;237,65
2016-01-13 12:00;211,2
2016-01-13 12:15;198,2
2016-01-13 12:30;194
2016-01-13 12:45;197,3
2016-01-13 13:00;191,65
2016-01-13 13:15;209,5
2016-01-13 13:30;202,4
2016-01-13 13:45;219,85
2016-01-13 14:00;212,7
2016-01-13 14:15;208,95
2016-01-13 14:30;215,4
2016-01-13 14:45;206,15
2016-01-13 15:00;214,8
2016-01-13 15:15;196,9
2016-01-13 15:30;179,8
2016-01-13 15:45;192,1
2016-01-13 16:00;173
2016-01-13 16:15;178,1
2016-01-13 16:30;178,25
2016-01-13 16:45;171,95
2016-01-13 17:00;164,3
2016-01-13 17:15;151,45
2016-01-13 17:30;166,2
2016-01-13 17:45;148,05
2016-01-13 18:00;154,8
2016-01-13 18:15;157,8
2016-01-13 18:30;153,85
2016-01-13 18:45;151,9
2016-01-13 19:00;147,35
2016-01-13 19:15;131,05
2016-01-13 19:30;125,15
2016-01-13 19:45;121,3
2016-01-13 20:00;117,9
2016-01-13 20:15;109,9
2016-01-13 20:30;110,5
2016-01-13 20:45;114,4
2016-01-13 21:00;107,8
2016-01-13 21:15;102,9
2016-01-13 21:30;104,2
2016-01-13 21:45;102,1
2016-01-13 22:00;95,3
2016-01-13 22:15;88
2016-01-13 22:30;85,55
2016-01-13 22:45;84,85
2016-01-13 23:00;81,1
2016-01-13 23:15;74,8
2016-01-13 23:30;72,4
2016-01-13 23:45;71,1
2016-01-14 00:00;71,65
2016-01-14 00:15;70,6
2016-01-14 00:30;69,85
2016-01-14 00:45;70
2016-01-14 01:00;69,65
2016-01-14 01:15;69,65
2016-01-14 01:30;68,8
2016-01-14 01:45;66,75
2016-01-14 02:00;70,25
2016-01-14 02:15;69,85
2016-01-14 02:30;68,7
2016-01-14 02:45;70,75
2016-01-14 03:00;71,1
2016-01-14 03:15;71,1
2016-01-14 03:30;71,55
2016-01-14 03:45;72,05
2016-01-14 04:00;80,2
2016-01-14 04:15;79,45
2016-01-14 04:30;77,65
2016-01-14 04:45;81,8
2016-01-14 05:00;79,6
2016-01-14 05:15;70,2
2016-01-14 05:30;72,35
2016-01-14 05:45;68,55
2016-01-14 06:00;76,85
2016-01-14 06:15;93,1
2016-01-14 06:30;96,8
2016-01-14 06:45;95,9
2016-01-14 07:00;92,3
2016-01-14 07:15;110,15
2016-01-14 07:30;120,7
2016-01-14 07:45;119,3
2016-01-14 08:00;166,1
2016-01-14 08:15;120,35
2016-01-14 08:30;127,1
2016-01-14 08:45;134,85
2016-01-14 09:00;127,15
2016-01-14 09:15;143,8
2016-01-14 09:30;155,85
2016-01-14 09:45;181,5
2016-01-14 10:00;225,35
2016-01-14 10:15;231,05
2016-01-14 10:30;192,4
2016-01-14 10:45;203,3
2016-01-14 11:00;208,2
2016-01-14 11:15;182,85
2016-01-14 11:30;209,2
2016-01-14 11:45;195,05
2016-01-14 12:00;211,6
2016-01-14 12:15;193,85
2016-01-14 12:30;213,45
2016-01-14 12:45;194,5
2016-01-14 13:00;201,5
2016-01-14 13:15;205,6
2016-01-14 13:30;204,5
2016-01-14 13:45;210,35
2016-01-14 14:00;192,2
2016-01-14 14:15;211,4
2016-01-14 14:30;191,9
2016-01-14 14:45;197,75
2016-01-14 15:00;180,5
2016-01-14 15:15;175,4
2016-01-14 15:30;160,3
2016-01-14 15:45;168,7
2016-01-14 16:00;159,75
2016-01-14 16:15;170,85
2016-01-14 16:30;157,6
2016-01-14 16:45;176
2016-01-14 17:00;166,95
2016-01-14 17:15;176,75
2016-01-14 17:30;174,9
2016-01-14 17:45;166,45
2016-01-14 18:00;168,75
2016-01-14 18:15;163,8
2016-01-14 18:30;155,9
2016-01-14 18:45;147,1
2016-01-14 19:00;144,5
2016-01-14 19:15;139,1
2016-01-14 19:30;133,6
2016-01-14 19:45;133,4
2016-01-14 20:00;135,15
2016-01-14 20:15;131,55
2016-01-14 20:30;132,3
2016-01-14 20:45;132,8
2016-01-14 21:00;123,8
2016-01-14 21:15;116,25
2016-01-14 21:30;109,45
2016-01-14 21:45;104,15
2016-01-14 22:00;97,85
2016-01-14 22:15;95,4
2016-01-14 22:30;91,55
2016-01-14 22:45;85,8
2016-01-14 23:00;86,4
2016-01-14 23:15;85
2016-01-14 23:30;81,35
2016-01-14 23:45;81,1
2016-01-15 00:00;80
2016-01-15 00:15;79,9
2016-01-15 00:30;76,45
2016-01-15 00:45;76,65
2016-01-15 01:00;77,6
2016-01-15 01:15;77,8
2016-01-15 01:30;76,5
2016-01-15 01:45;77,55
2016-01-15 02:00;75,55
2016-01-15 02:15;76,3
2016-01-15 02:30;73,9
2016-01-15 02:45;74,6
2016-01-15 03:00;72,8
2016-01-15 03:15;75,8
2016-01-15 03:30;72,55
2016-01-15 03:45;74,05
2016-01-15 04:00;76,05
2016-01-15 04:15;75,9
2016-01-15 04:30;74,2
2016-01-15 04:45;74,35
2016-01-15 05:00;77,25
2016-01-15 05:15;80,35
2016-01-15 05:30;82,55
2016-01-15 05:45;78,2
2016-01-15 06:00;75,8
2016-01-15 06:15;84,7
2016-01-15 06:30;97,05
2016-01-15 06:45;98,9
2016-01-15 07:00;102,9
2016-01-15 07:15;110,6
2016-01-15 07:30;117,65
2016-01-15 07:45;116,75
2016-01-15 08:00;171,4
2016-01-15 08:15;189,8
2016-01-15 08:30;178,55
2016-01-15 08:45;179,35
2016-01-15 09:00;166,1
2016-01-15 09:15;167,55
2016-01-15 09:30;176,45
2016-01-15 09:45;170,05
2016-01-15 10:00;184,75
2016-01-15 10:15;180,9
2016-01-15 10:30;206,9
2016-01-15 10:45;188,5
2016-01-15 11:00;209,7
2016-01-15 11:15;187,35
2016-01-15 11:30;199,45
2016-01-15 11:45;192,75
2016-01-15 12:00;193,85
2016-01-15 12:15;208,65
2016-01-15 12:30;198,4
2016-01-15 12:45;198
2016-01-15 13:00;191,05
2016-01-15 13:15;205,45
2016-01-15 13:30;186,55
2016-01-15 13:45;194,45
2016-01-15 14:00;196,5
2016-01-15 14:15;188,6
2016-01-15 14:30;189,85
2016-01-15 14:45;175,6
2016-01-15 15:00;182,9
2016-01-15 15:15;175,15
2016-01-15 15:30;184
2016-01-15 15:45;169,25
2016-01-15 16:00;173,25
2016-01-15 16:15;158,15
2016-01-15 16:30;176
2016-01-15 16:45;159,6
2016-01-15 17:00;187,8
2016-01-15 17:15;160,05
2016-01-15 17:30;154
2016-01-15 17:45;149,55
2016-01-15 18:00;145,25
2016-01-15 18:15;151,3
2016-01-15 18:30;152,15
2016-01-15 18:45;153,55
2016-01-15 19:00;154,55
2016-01-15 19:15;143,3
2016-01-15 19:30;133,9
2016-01-15 19:45;128,8
2016-01-15 20:00;118,6
2016-01-15 20:15;119,3
2016-01-15 20:30;117,6
2016-01-15 20:45;114,25
2016-01-15 21:00;103,85
2016-01-15 21:15;104,2
2016-01-15 21:30;98,8
2016-01-15 21:45;92,5
2016-01-15 22:00;86,05
2016-01-15 22:15;85,45
2016-01-15 22:30;82,5
2016-01-15 22:45;78,4
2016-01-15 23:00;73,9
2016-01-15 23:15;74,65
2016-01-15 23:30;72,7
2016-01-15 23:45;73,05
2016-01-16 00:00;71,65
2016-01-16 00:15;70,5
2016-01-16 00:30;71
2016-01-16 00:45;69,95
2016-01-16 01:00;71,85
2016-01-16 01:15;74,9
2016-01-16 01:30;77,25
2016-01-16 01:45;76,95
2016-01-16 02:00;77,4
2016-01-16 02:15;78,3
2016-01-16 02:30;76,8
2016-01-16 02:45;81,2
2016-01-16 03:00;73,15
2016-01-16 03:15;72,8
2016-01-16 03:30;71,7
2016-01-16 03:45;73
2016-01-16 04:00;74,15
2016-01-16 04:15;70
2016-01-16 04:30;72,9
2016-01-16 04:45;72,1
2016-01-16 05:00;71,65
2016-01-16 05:15;72,8
2016-01-16 05:30;74
2016-01-16 05:45;73,25
2016-01-16 06:00;69,25
2016-01-16 06:15;72,8
2016-01-16 06:30;73
2016-01-16 06:45;68,05
2016-01-16 07:00;70,75
2016-01-16 07:15;66,9
2016-01-16 07:30;67,7
2016-01-16 07:45;64,9
2016-01-16 08:00;65,05
2016-01-16 08:15;63,05
2016-01-16 08:30;63,6
2016-01-16 08:45;63,8
2016-01-16 09:00;62,25
2016-01-16 09:15;64,1
2016-01-16 09:30;62,1
2016-01-16 09:45;64,45
2016-01-16 10:00;66,25
2016-01-16 10:15;70,45
2016-01-16 10:30;72,45
2016-01-16 10:45;80,35
2016-01-16 11:00;79,8
2016-01-16 11:15;69,35
2016-01-16 11:30;71,9
2016-01-16 11:45;69,95
2016-01-16 12:00;71,5
2016-01-16 12:15;71,9
2016-01-16 12:30;76,35
2016-01-16 12:45;74,5
2016-01-16 13:00;78,45
2016-01-16 13:15;77,5
2016-01-16 13:30;86,7
2016-01-16 13:45;89,85
2016-01-16 14:00;91,8
2016-01-16 14:15;91,8
2016-01-16 14:30;91,05
2016-01-16 14:45;92,75
2016-01-16 15:00;84,25
2016-01-16 15:15;87,2
2016-01-16 15:30;80,5
2016-01-16 15:45;82,65
2016-01-16 16:00;81
2016-01-16 16:15;77,35
2016-01-16 16:30;82,4
2016-01-16 16:45;81,6
2016-01-16 17:00;81,8
2016-01-16 17:15;77,45
2016-01-16 17:30;82,5
2016-01-16 17:45;88,6
2016-01-16 18:00;94,1
2016-01-16 18:15;94
2016-01-16 18:30;94,05
2016-01-16 18:45;97,8
2016-01-16 19:00;99,95
2016-01-16 19:15;95,55
2016-01-16 19:30;93,1
2016-01-16 19:45;89,15
2016-01-16 20:00;90,85
2016-01-16 20:15;89,9
2016-01-16 20:30;87,4
2016-01-16 20:45;84,4
2016-01-16 21:00;80,5
2016-01-16 21:15;81,85
2016-01-16 21:30;84,55
2016-01-16 21:45;88,7
2016-01-16 22:00;84,7
2016-01-16 22:15;86,8
2016-01-16 22:30;86,4
2016-01-16 22:45;84,4
2016-01-16 23:00;86,9
2016-01-16 23:15;84,65
2016-01-16 23:30;77,7
2016-01-16 23:45;75,75
2016-01-17 00:00;71,45
2016-01-17 00:15;73,8
2016-01-17 00:30;69,55
2016-01-17 00:45;69,75
2016-01-17 01:00;69,55
2016-01-17 01:15;67,5
2016-01-17 01:30;70,35
2016-01-17 01:45;69,25
2016-01-17 02:00;69,05
2016-01-17 02:15;69,35
2016-01-17 02:30;68,45
2016-01-17 02:45;68,95
2016-01-17 03:00;67,95
2016-01-17 03:15;68,6
2016-01-17 03:30;69,35
2016-01-17 03:45;66,95
2016-01-17 04:00;72,35
2016-01-17 04:15;69,2
2016-01-17 04:30;70,35
2016-01-17 04:45;73,45
2016-01-17 05:00;69,7
2016-01-17 05:15;69
2016-01-17 05:30;70,95
2016-01-17 05:45;64,95
2016-01-17 06:00;66
2016-01-17 06:15;70,85
2016-01-17 06:30;77,1
2016-01-17 06:45;73,35
2016-01-17 07:00;72,25
2016-01-17 07:15;71,25
2016-01-17 07:30;71,8
2016-01-17 07:45;67,9
2016-01-17 08:00;65,4
2016-01-17 08:15;64,25
2016-01-17 08:30;59,75
2016-01-17 08:45;62,4
2016-01-17 09:00;60,75
2016-01-17 09:15;60,45
2016-01-17 09:30;60,7
2016-01-17 09:45;59,85
2016-01-17 10:00;62,55
2016-01-17 10:15;65,3
2016-01-17 10:30;68
2016-01-17 10:45;75,9
2016-01-17 11:00;82,35
2016-01-17 11:15;73,65
2016-01-17 11:30;75
2016-01-17 11:45;75,8
2016-01-17 12:00;74,5
2016-01-17 12:15;77,05
2016-01-17 12:30;79,55
2016-01-17 12:45;72,1
2016-01-17 13:00;72
2016-01-17 13:15;73,95
2016-01-17 13:30;73,25
2016-01-17 13:45;77,95
2016-01-17 14:00;76,75
2016-01-17 14:15;79,2
2016-01-17 14:30;80,9
2016-01-17 14:45;78,25
2016-01-17 15:00;72,9
2016-01-17 15:15;78,75
2016-01-17 15:30;81,7
2016-01-17 15:45;80
2016-01-17 16:00;84,2
2016-01-17 16:15;89,45
2016-01-17 16:30;90,2
2016-01-17 16:45;86,6
2016-01-17 17:00;81,15
2016-01-17 17:15;87,35
2016-01-17 17:30;88,1
2016-01-17 17:45;90,45
2016-01-17 18:00;91,1
2016-01-17 18:15;93,2
2016-01-17 18:30;95,9
2016-01-17 18:45;102,25
2016-01-17 19:00;98,25
2016-01-17 19:15;100,3
2016-01-17 19:30;101,25
2016-01-17 19:45;108,35
2016-01-17 20:00;105,35
2016-01-17 20:15;100,95
2016-01-17 20:30;100,2
2016-01-17 20:45;98,6
2016-01-17 21:00;97,35
2016-01-17 21:15;100,45
2016-01-17 21:30;100,85
2016-01-17 21:45;97,85
2016-01-17 22:00;80,3
2016-01-17 22:15;82,6
2016-01-17 22:30;81,1
2016-01-17 22:45;80,6
2016-01-17 23:00;76,8
2016-01-17 23:15;77,6
2016-01-17 23:30;78,4
2016-01-17 23:45;78,3

